Regional Weather Roundup
Issued by NWS

Home | Current Version | Previous Version | Text Only | Print | Product List | Glossary On
Versions: 1 2 3 4 5 6 7 8 9 10 11 12 13 14 15 16 17 18 19 20 21 22 23 24 25 26 27
000
ASUS46 KPQR 261610
RWROR

OREGON REGIONAL WEATHER ROUNDUP
NATIONAL WEATHER SERVICE PORTLAND OR
900 AM PDT MON JUN 26 2017

NOTE: "FAIR" INDICATES FEW OR NO CLOUDS BELOW 12,000 FEET WITH
NO SIGNIFICANT WEATHER AND/OR OBSTRUCTIONS TO VISIBILITY.

ORZ001>013-261700-
NORTHWEST OREGON


CITY           SKY/WX    TMP DP  RH WIND       PRES   REMARKS
ASTORIA        CLOUDY    59  54  83 SW8       30.01R
NEWPORT        CLOUDY    55  54  94 SW7       30.06R
PORTLAND       CLOUDY    62  54  74 CALM      30.00R
VANCOUVER WA   LGT RAIN  62  57  83 N3        29.99R
SCAPPOOSE      CLOUDY    62  54  74 CALM      29.99S THUNDER
HILLSBORO      CLOUDY    62  55  77 E5        29.99R
AURORA         MOSUNNY   63  53  70 VRB7      30.00R
MCMINNVILLE    PTSUNNY   63  53  70 W3        30.00S
SALEM          MOSUNNY   65  53  65 CALM      29.98F
CORVALLIS      MOSUNNY   64  52  63 CALM      30.01R
EUGENE         PTSUNNY   60  53  77 SW8       30.01S
$$

ORZ021-028-261700-
SOUTHWEST OREGON


CITY           SKY/WX    TMP DP  RH WIND       PRES   REMARKS
NORTH BEND     CLOUDY    57  55  94 W5        30.05S
BROOKINGS      CLOUDY    56  55  97 S3        30.06R
ROSEBURG       CLOUDY    63  54  72 NE6       30.01R
SEXTON SUMMIT  SUNNY     63  55  75 N5        30.05R
GRANTS PASS    FAIR      70  63  78 CALM      29.99S
MEDFORD        SUNNY     73  62  68 VRB3      29.94S
$$

ORZ014>016-041-261700-
COLUMBIA GORGE


CITY           SKY/WX    TMP DP  RH WIND       PRES   REMARKS
TROUTDALE      MOSUNNY   65  55  70 NW3       29.99R
HOOD RIVER     MOSUNNY   73  54  49 W12G20    29.88S
THE DALLES     SUNNY     77  56  48 NW20G29   29.83S
$$

ORZ029>031-041-044-049-050-061>064-502-503-505>511-261700-
EASTERN OREGON


CITY           SKY/WX    TMP DP  RH WIND       PRES   REMARKS
MADRAS         SUNNY     79  50  36 CALM      29.96S
REDMOND        SUNNY     78  48  34 SE3       29.98S
BEND           SUNNY    N/A N/A N/A CALM      30.01F
PRINEVILLE     SUNNY     79  48  34 SW6       30.00S
KLAMATH FALLS  SUNNY     69  54  58 CALM      30.07F
LAKEVIEW       SUNNY     70  54  56 S6        30.13S
HERMISTON      MOSUNNY   85  55  35 NW6       29.81S
PENDLETON      MOSUNNY   84  51  31 SE5       29.85S
JOHN DAY       SUNNY     78  46  32 CALM      30.00F
MEACHAM        MOSUNNY   80  44  27 VRB3      29.99F
LA GRANDE      SUNNY     72  48  43 CALM      29.96S
BAKER CITY     SUNNY     71  48  43 CALM      29.99F
BURNS          SUNNY     72  50  45 S3        30.05S
ROME             N/A     83  40  21 W6        30.01S
ONTARIO        SUNNY     77  50  38 VRB3      29.94F
$$




USA.gov is the U.S. government's official web portal to all federal, state and local government web resources and services.